Regional Weather Roundup
Issued by NWS Wilmington, NC

Home | Current Version | Previous Version | Text Only | Print | Product List | Glossary On
Versions: 1 2 3 4 5 6 7 8 9 10 11 12 13 14 15 16 17 18 19 20 21 22 23 24 25 26 27 28 29 30 31 32 33 34 35 36 37 38 39 40 41 42 43 44 45 46 47 48 49 50
000
ASUS42 KILM 291310
RWRILM
RWRILM
REGIONAL HOURLY WEATHER ROUNDUP
NATIONAL WEATHER SERVICE WILMINGTON NC
800 AM EST MON DEC 29 2014

NOTE: "FAIR" INDICATES FEW OR NO CLOUDS BELOW 12,000 FEET WITH NO
SIGNIFICANT WEATHER AND/OR OBSTRUCTIONS TO VISIBILITY.

...............WFO WILMINGTON COUNTY WARNING AREA...............

......COASTAL NC AND SC COUNTIES......

CITY           SKY/WX    TMP DP  RH WIND       PRES   REMARKS
WILMINGTON     CLOUDY    58  57  97 NE6       30.05R FOG
SOUTHPORT      FOG       58  57  97 CALM      30.05R VSB<1/4
N MYRTLE BEACH FOG       58  57  97 CALM      30.03S VSB<1/4
MYRTLE BEACH   NOT AVBL

......INLAND NC AND SC COUNTIES.......

CITY           SKY/WX    TMP DP  RH WIND       PRES   REMARKS
LUMBERTON      CLOUDY    59  55  87 NE15      30.06R
ELIZABETHTOWN  CLOUDY    58  57  97 NE6       30.06R
WHITEVILLE     CLOUDY    60  60  97 NE5       30.04R FOG
FLORENCE       CLOUDY    61  58  90 N3        30.04R
DARLINGTON     CLOUDY    57  54  88 N16G28    30.08R

....................REST OF NORTH CAROLINA......................

.........EASTERN NC.........

CITY           SKY/WX    TMP DP  RH WIND       PRES   REMARKS
CAPE HATTERAS  CLOUDY    55  55 100 NE7       30.05S FOG
JACKSONVILLE   CLOUDY    57  54  88 N16       30.09R
MOREHEAD CITY  CLOUDY    59  58  96 NE8       30.07R
KENANSVILLE    LGT RAIN  55  54  97 N6        30.10R
NEW BERN       LGT RAIN  59  54  83 N7        30.10R
ELIZABETH CITY RAIN      52  47  83 NE12      30.12F

.........CENTRAL NC.........

CITY           SKY/WX    TMP DP  RH WIND       PRES   REMARKS
RALEIGH DURHAM LGT RAIN  52  49  89 E7        30.09R FOG
ROCKY MOUNT    HVY RAIN  53  52  96 N3        30.15R FOG
ROANOKE RAPIDS NOT AVBL
FAYETTEVILLE   CLOUDY    55  54  96 NW10      30.09R
HOFFMAN        HVY RAIN  54  54 100 E6        30.11R FOG

.........WESTERN NC.........

CITY           SKY/WX    TMP DP  RH WIND       PRES   REMARKS
CHARLOTTE      LGT RAIN  54  52  93 E9G16     30.06F FOG
GREENSBORO     LGT RAIN  50  48  93 E3        30.08S FOG
HICKORY        NOT AVBL
BOONE          NOT AVBL
ASHEVILLE      NOT AVBL

.....................REST OF SOUTH CAROLINA.....................

.........EASTERN SC.........

CITY           SKY/WX    TMP DP  RH WIND       PRES   REMARKS
CHARLESTON     CLOUDY    62  60  93 W6        30.06R FOG
BEAUFORT MCAS  MOCLDY    63  61  93 S7        30.06S
HILTON HEAD    MOCLDY    64  63  94 SW10      30.08R

.........CENTRAL SC.........

CITY           SKY/WX    TMP DP  RH WIND       PRES   REMARKS
COLUMBIA       LGT RAIN  58  57  97 N7        30.06R FOG
ORANGEBURG     CLOUDY    62  60  93 W9        30.03R
SUMTER SHAW    LGT RAIN  59  58  97 N13       30.02R FOG

.........WESTERN SC.........

CITY           SKY/WX    TMP DP  RH WIND       PRES   REMARKS
GREENVILLE     NOT AVBL
ROCK HILL      LGT RAIN  54  53  97 E6        30.06R
ANDERSON       CLOUDY    54  53  97 CALM      30.04R
CLEMSON        NOT AVBL
GREENWOOD      CLOUDY    55  53  93 CALM      30.07R


...................COASTAL AND OFFSHORE REPORTS..................

................LOCAL PIERS AND NC RESERVE................


STATION/POSITION TIME  SKY/WX   TEMP    WIND        PRES    VSBY
                                AIR SEA DIR/SP/G
                 (UTC)          (F)     (DEG/KT/KT) (MB)    (MI)
JOHNY MRCER PIER 1300            58 56   CALM  /  2 1016.8S
NC RESRV MASNBRO 1200            57     200/  2     1017.0S
OCEAN CREST PIER 1300            59 57   60/  5/  5 1016.5R
SPRINGMAID  PIER 1300            56 53  200/  5/  5 1016.6F


................COASTAL AND OFFSHORE BUOYS................


STATION/POSITION TIME  SKY/WX   TEMP    WIND        PRES    VSBY
                                AIR SEA DIR/SP/G
                 (UTC)          (F)     (DEG/KT/KT) (MB)    (MI)
DIMNDSHOAL 41025 1300            63                 1017.3F
WVE H/P(F/S)=  2/12

CAPE LOOKOUT     1200            60      60/  7/  8 1017.1F
ONSLOW BAY 41036 1300            60 60   CALM  /  6 1018.1R
WVE H/P(F/S)=  3/12 WND WVE H/P(F/S)=  2/ 4 SWL H/P/D(F/S/D)=  2/110/12

5 WRITEBCH 41038 NOT AVBL
MASONBORO  41110 1200               54                N/A
WVE H/P(F/S)=  2/13 WND WVE H/P(F/S)=  2/ 6 SWL H/P/D(F/S/D)=  2/110/13

WILM HARBR 41108 1300               56                N/A
WVE H/P(F/S)=  2/13 WND WVE H/P(F/S)=  2/ 5 SWL H/P/D(F/S/D)=  2/130/13

27WRITEBCH 41037 1200            57 59  220/  2/  2 1018.6S
FRYING PAN 41013 1300            65 68  220/  8/ 10 1017.8F
WVE H/P(F/S)=  3/13 WND WVE H/P(F/S)=  2/ 4 SWL H/P/D(F/S/D)=  3/100/13

SUNST NRSH 41024 1200            56     160/  4/  6   N/A
CAPRS NRSH 41029 1200            59     220/ 10/ 12   N/A
EDISTO     41004 1300            70 72  220/ 16/ 17 1016.7F
WVE H/P(F/S)=  3/12 WND WVE H/P(F/S)=  2/ 4 SWL H/P/D(F/S/D)=  2/12



..........OFFSHORE BUOYS BEYOND 100 NM OFFSHORE...........
.....IN A TRIANGLE---HAT TO BERMUDA TO BAHAMAS TO HAT.....


STATION/POSITION TIME  SKY/WX   TEMP    WIND        PRES    VSBY
                                AIR SEA DIR/SP/G
                 (UTC)          (F)     (DEG/KT/KT) (MB)    (MI)
150E HAT   41001 NOT AVBL
W BERMUDA  41048 1223            72 73  210/ 16/ 17 1021.7R
WVE H/P(F/S)=  4/ 5 WND WVE H/P(F/S)=  3/ 5 SWL H/P/D(F/S/D)=  2/ 70/11

ATLANTIC S 41049 1206            75 76   90/ 10/ 12 1024.7R
WVE H/P(F/S)=  5/11 WND WVE H/P(F/S)=  2/ 5 SWL H/P/D(F/S/D)=  5/ 60/11

E BAHAMAS  41046 1249            78 78  100/ 16/ 17 1021.4R
WVE H/P(F/S)=  7/11 WND WVE H/P(F/S)=  5/ 7 SWL H/P/D(F/S/D)=  5/ 40/11

NE BAHAMAS 41047 1217            76 78  150/  6/  8 1023.3R
WVE H/P(F/S)=  4/13 WND WVE H/P(F/S)=  2/ 3 SWL H/P/D(F/S/D)=  5/ 70/13

120E CANVRL41010 1300            76 77  190/ 12/ 16 1020.4R
WVE H/P(F/S)=  4/14 WND WVE H/P(F/S)=  2/ 6 SWL H/P/D(F/S/D)=  3/ 80/14


END


USA.gov is the U.S. government's official web portal to all federal, state and local government web resources and services.